Ketchikan, AK

10:02 PM AKDT on October 15, 2018 (GMT -0800)
Ketchikan International

Weather History for PAKT - May, 2018

Change the Weather History Date:

Sunday, May 6, 2018

  Actual Average Record
Temperature  
Mean Temperature 53 °F -  
Max Temperature 62 °F 54 °F 72 °F (1972)
Min Temperature 46 °F 40 °F 28 °F (2002)
Degree Days  
Heating Degree Days 12    
Growing Degree Days 3 (Base 50)    
Moisture  
Dew Point 47 °F    
Average Humidity 86    
Maximum Humidity 100    
Minimum Humidity 63    
Precipitation  
Precipitation 0.00 in - - ()
Sea Level Pressure  
Sea Level Pressure 30.12 in    
Wind  
Wind Speed 11 mph (NW)    
Max Wind Speed 17 mph    
Max Gust Speed -    
Visibility 8 miles    
Events Fog    
Averages and records for this station are not official NWS values.
T = Trace of Precipitation, MM = Missing Value Source: NWS Daily Summary

Daily Weather History Graph

Daily Weather History Graph

Search for Another Location

Airport or City:

Astronomy

May. 06, 2018 Rise Set
Actual Time 4:54 AM AKDT 8:33 PM AKDT
Civil Twilight 4:09 AM AKDT 9:19 PM AKDT
Nautical Twilight 3:05 AM AKDT 10:23 PM AKDT
Astronomical Twilight 12:59 AM AKDT 12:10 AM AKDT
Moon 1:51 AM AKDT (5/6) 10:01 AM AKDT (5/6)
Length of Visible Light 17h 10m
Length of Day
15h 39m
Waning Gibbous, 62% of the Moon is Illuminated
May 6
Waning Gibbous
May 7
Last Quarter
May 15
New
May 21
First Quarter
May 29
Full

Hourly Weather History & Observations

Time (AKDT) Temp. Windchill Dew Point Humidity Pressure Visibility Wind Dir Wind Speed Gust Speed Precip Events Conditions
12:53 AM 46.9 °F - 46.0 °F 97% 30.22 in 10.0 mi NW 4.6 mph - N/A   Clear
1:53 AM 46.0 °F 41.4 °F 46.0 °F 100% 30.21 in 10.0 mi NW 9.2 mph - N/A   Clear
2:22 AM 46.0 °F 41.4 °F 46.0 °F 100% 30.20 in 10.0 mi NW 9.2 mph - N/A   Scattered Clouds
2:31 AM 46.0 °F 41.0 °F 46.0 °F 100% 30.20 in 8.0 mi NW 10.4 mph - N/A   Mostly Cloudy
2:47 AM 46.4 °F 41.9 °F 46.4 °F 100% 30.20 in 1.5 mi NW 9.2 mph - N/A   Overcast
2:53 AM 46.9 °F - 46.0 °F 97% 30.20 in 0.5 mi NW 9.2 mph - N/A Fog Fog
3:07 AM 46.0 °F 41.0 °F 46.0 °F 100% 30.19 in 0.2 mi NW 10.4 mph - N/A Fog Fog
3:34 AM 46.0 °F 40.2 °F 46.0 °F 100% 30.19 in 0.2 mi NNW 12.7 mph - N/A Fog Fog
3:41 AM 46.9 °F - 46.0 °F 97% 30.19 in 0.5 mi NNW 13.8 mph - N/A Fog Fog
3:50 AM 46.4 °F 40.1 °F 46.4 °F 100% 30.19 in 2.0 mi NNW 15.0 mph - N/A   Overcast
3:53 AM 46.9 °F - 46.0 °F 97% 30.19 in 4.0 mi NNW 15.0 mph - N/A   Overcast
4:16 AM 46.9 °F - 46.9 °F 100% 30.18 in 10.0 mi NNW 15.0 mph - N/A   Scattered Clouds
4:53 AM 46.9 °F - 46.0 °F 97% 30.18 in 10.0 mi NNW 12.7 mph - N/A   Mostly Cloudy
5:18 AM 48.0 °F - 46.9 °F 96% 30.17 in 10.0 mi NW 15.0 mph - N/A   Scattered Clouds
5:53 AM 46.9 °F - 46.0 °F 97% 30.17 in 10.0 mi NNW 16.1 mph - N/A   Clear
6:09 AM 48.0 °F - 46.0 °F 93% 30.16 in 10.0 mi NNW 16.1 mph - N/A   Partly Cloudy
6:53 AM 48.9 °F - 46.9 °F 93% 30.16 in 10.0 mi North 13.8 mph - N/A   Partly Cloudy
7:53 AM 51.1 °F - 46.9 °F 86% 30.14 in 10.0 mi NNW 15.0 mph - N/A   Partly Cloudy
8:53 AM 53.6 °F - 46.4 °F 77% 30.13 in 10.0 mi NNW 17.3 mph - N/A   Partly Cloudy
9:53 AM 53.6 °F - 48.2 °F 82% 30.11 in 10.0 mi NNW 17.3 mph - N/A   Clear
10:53 AM 55.4 °F - 48.2 °F 77% 30.10 in 10.0 mi NNW 16.1 mph - N/A   Clear
11:53 AM 55.4 °F - 48.2 °F 77% 30.10 in 10.0 mi NNW 15.0 mph - N/A   Clear
12:53 PM 55.4 °F - 48.2 °F 77% 30.09 in 10.0 mi NW 13.8 mph - N/A   Clear
1:53 PM 59.0 °F - 48.2 °F 67% 30.08 in 10.0 mi NW 12.7 mph - N/A   Clear
2:53 PM 60.8 °F - 48.2 °F 63% 30.06 in 10.0 mi WNW 11.5 mph - N/A   Clear
3:53 PM 60.8 °F - 48.2 °F 63% 30.04 in 10.0 mi NW 15.0 mph - N/A   Clear
4:53 PM 60.8 °F - 48.2 °F 63% 30.03 in 10.0 mi NW 11.5 mph - N/A   Clear
5:53 PM 59.0 °F - 48.2 °F 67% 30.00 in 10.0 mi NW 13.8 mph - N/A   Clear
6:53 PM 57.9 °F - 48.0 °F 70% 29.99 in 10.0 mi NW 10.4 mph - N/A   Clear
7:53 PM 55.9 °F - 48.0 °F 75% 29.99 in 10.0 mi NW 10.4 mph - N/A   Clear
8:53 PM 55.0 °F - 48.0 °F 77% 30.01 in 10.0 mi WNW 9.2 mph - N/A   Clear
9:53 PM 55.0 °F - 48.0 °F 77% 30.02 in 10.0 mi WNW 9.2 mph - N/A   Clear
10:53 PM 54.0 °F - 48.9 °F 83% 30.03 in 10.0 mi WNW 8.1 mph - N/A   Clear
11:53 PM 53.1 °F - 48.0 °F 83% 30.03 in 10.0 mi WNW 4.6 mph - N/A   Clear